When you browse on this site, cookies collect data to enhance your experience and personalize the content and advertising you see.
Visit our Privacy Policy to learn more. By continuing to use the site, you agree to this use of cookies and data.
  • In Romania
  • List of Countries
  • For 7 days
  • Water Temperature
  • Satellite Maps
  • Weather Map
  • Weather Widgets
  • user-avatar
    Login

    Hourly Weather Novaya Teplovka

    Today, 19 February, Tuesday

    Time Temperature Precipitation Wind Pressure Humidity
    00:00 -14°C° 0 mm 7 mps 741 mmHg 83%
    01:00 -15°C° 0 mm 7 mps 742 mmHg 83%
    02:00 -17°C° 0 mm 7 mps 742 mmHg 83%
    03:00 -16°C° 0 mm 6 mps 742 mmHg 83%
    04:00 -17°C° 0 mm 6 mps 743 mmHg 84%
    05:00 -17°C° 0 mm 6 mps 744 mmHg 84%
    06:00 -19°C° 0 mm 7 mps 744 mmHg 84%
    07:00 -19°C° 0 mm 7 mps 745 mmHg 83%
    08:00 -19°C° 0 mm 7 mps 746 mmHg 83%
    09:00 -18°C° 0 mm 7 mps 747 mmHg 82%
    10:00 -18°C° 0 mm 7 mps 748 mmHg 81%
    11:00 -17°C° 0 mm 7 mps 748 mmHg 80%
    12:00 -15°C° 0 mm 7 mps 748 mmHg 79%
    13:00 -15°C° 0 mm 6 mps 749 mmHg 79%
    14:00 -14°C° 0 mm 6 mps 749 mmHg 80%
    15:00 -13°C° 0 mm 5 mps 749 mmHg 80%
    16:00 -14°C° 0 mm 5 mps 749 mmHg 82%
    17:00 -15°C° 0 mm 4 mps 749 mmHg 84%
    18:00 -15°C° 0 mm 4 mps 749 mmHg 87%
    19:00 -15°C° 0 mm 4 mps 749 mmHg 87%
    20:00 -15°C° 0 mm 5 mps 749 mmHg 87%
    21:00 -15°C° 0 mm 5 mps 749 mmHg 88%
    22:00 -15°C° 0 mm 6 mps 748 mmHg 88%
    23:00 -15°C° 0 mm 6 mps 748 mmHg 88%

    Tomorrow, 20 February, Wednesday

    Time Temperature Precipitation Wind Pressure Humidity
    00:00 -15°C° 0 mm 6 mps 748 mmHg 88%
    01:00 -14°C° 0 mm 6 mps 748 mmHg 88%
    02:00 -14°C° 0 mm 6 mps 748 mmHg 88%
    03:00 -12°C° 0 mm 6 mps 747 mmHg 87%
    04:00 -12°C° 0 mm 6 mps 747 mmHg 88%
    05:00 -14°C° 0 mm 6 mps 747 mmHg 89%
    06:00 -14°C° 0 mm 6 mps 747 mmHg 90%
    07:00 -12°C° 0 mm 6 mps 747 mmHg 89%
    08:00 -12°C° 0 mm 6 mps 746 mmHg 89%
    09:00 -12°C° 0 mm 6 mps 746 mmHg 88%
    10:00 -10°C° 0 mm 6 mps 746 mmHg 87%
    11:00 -9°C° 0 mm 6 mps 746 mmHg 86%
    12:00 -8°C° 0 mm 7 mps 745 mmHg 85%
    13:00 -8°C° 0 mm 7 mps 745 mmHg 85%
    14:00 -7°C° 0 mm 7 mps 745 mmHg 84%
    15:00 -7°C° 0 mm 7 mps 744 mmHg 84%
    16:00 -8°C° 0 mm 7 mps 744 mmHg 84%
    17:00 -8°C° 0 mm 7 mps 744 mmHg 85%
    18:00 -9°C° 0 mm 7 mps 744 mmHg 85%
    19:00 -9°C° 0 mm 7 mps 743 mmHg 86%
    20:00 -9°C° 0 mm 7 mps 743 mmHg 87%
    21:00 -9°C° 0 mm 7 mps 743 mmHg 88%
    22:00 -8°C° 0.1 mm 7 mps 743 mmHg 89%
    23:00 -8°C° 0.1 mm 6 mps 742 mmHg 91%

    Day after tomorrow, 21 February, Thursday

    Time Temperature Precipitation Wind Pressure Humidity
    00:00 -6°C° 0.1 mm 6 mps 742 mmHg 92%
    01:00 -6°C° 0 mm 6 mps 742 mmHg 93%
    02:00 -6°C° 0 mm 6 mps 741 mmHg 93%
    03:00 -6°C° 0 mm 6 mps 741 mmHg 94%
    04:00 -6°C° 0 mm 6 mps 741 mmHg 94%
    05:00 -5°C° 0 mm 6 mps 740 mmHg 95%
    06:00 -5°C° 0 mm 5 mps 740 mmHg 95%
    07:00 -5°C° 0.1 mm 6 mps 740 mmHg 95%
    08:00 -4°C° 0.1 mm 6 mps 740 mmHg 95%
    09:00 -4°C° 0.1 mm 6 mps 740 mmHg 95%
    10:00 -4°C° 0.2 mm 6 mps 739 mmHg 95%
    11:00 -3°C° 0.2 mm 6 mps 739 mmHg 96%
    12:00 -2°C° 0.2 mm 5 mps 738 mmHg 96%
    13:00 -2°C° 0.1 mm 5 mps 738 mmHg 96%
    14:00 -2°C° 0.1 mm 5 mps 738 mmHg 97%
    15:00 -1°C° 0.1 mm 5 mps 737 mmHg 97%
    16:00 -1°C° 0.2 mm 5 mps 737 mmHg 96%
    17:00 -1°C° 0.2 mm 5 mps 737 mmHg 95%
    18:00 -1°C° 0.2 mm 5 mps 736 mmHg 95%
    19:00 -2°C° 0.2 mm 5 mps 736 mmHg 94%
    20:00 -2°C° 0.2 mm 5 mps 736 mmHg 94%
    21:00 -2°C° 0.2 mm 5 mps 736 mmHg 94%
    22:00 -5°C° 0.1 mm 5 mps 736 mmHg 93%
    23:00 -7°C° 0.1 mm 4 mps 735 mmHg 93%

    22 February, Friday

    Time Temperature Precipitation Wind Pressure Humidity
    00:00 -8°C° 0.1 mm 3 mps 735 mmHg 92%
    01:00 -9°C° 0 mm 4 mps 735 mmHg 93%
    02:00 -10°C° 0 mm 4 mps 735 mmHg 95%
    03:00 -10°C° 0 mm 4 mps 735 mmHg 97%
    04:00 -10°C° 0.1 mm 5 mps 735 mmHg 95%
    05:00 -8°C° 0.1 mm 5 mps 735 mmHg 94%
    06:00 -8°C° 0.1 mm 6 mps 735 mmHg 93%
    07:00 -8°C° 0.3 mm 6 mps 735 mmHg 93%
    08:00 -8°C° 0.3 mm 6 mps 735 mmHg 93%
    09:00 -8°C° 0.3 mm 7 mps 736 mmHg 93%
    10:00 -8°C° 0.3 mm 7 mps 736 mmHg 92%
    11:00 -8°C° 0.3 mm 7 mps 736 mmHg 91%
    12:00 -7°C° 0.3 mm 8 mps 737 mmHg 90%
    13:00 -8°C° 0.1 mm 7 mps 737 mmHg 89%
    14:00 -8°C° 0.1 mm 7 mps 738 mmHg 89%
    15:00 -9°C° 0.1 mm 6 mps 738 mmHg 88%
    16:00 -9°C° 0 mm 6 mps 739 mmHg 89%
    17:00 -10°C° 0 mm 5 mps 740 mmHg 90%
    18:00 -11°C° 0 mm 5 mps 741 mmHg 91%
    19:00 -10°C° 0 mm 4 mps 741 mmHg 92%
    20:00 -11°C° 0 mm 4 mps 742 mmHg 93%
    21:00 -12°C° 0 mm 4 mps 743 mmHg 94%
    22:00 -13°C° 0 mm 3 mps 743 mmHg 94%
    23:00 -14°C° 0 mm 3 mps 744 mmHg 95%

    23 February, Saturday

    Time Temperature Precipitation Wind Pressure Humidity
    00:00 -15°C° 0 mm 3 mps 745 mmHg 96%
    01:00 -16°C° 0 mm 3 mps 745 mmHg 96%
    02:00 -16°C° 0 mm 2 mps 746 mmHg 96%
    03:00 -17°C° 0 mm 2 mps 746 mmHg 96%
    04:00 -18°C° 0 mm 2 mps 747 mmHg 96%
    05:00 -18°C° 0 mm 2 mps 747 mmHg 96%
    06:00 -19°C° 0 mm 2 mps 748 mmHg 97%
    07:00 -18°C° 0 mm 2 mps 748 mmHg 96%
    08:00 -17°C° 0 mm 2 mps 749 mmHg 96%
    09:00 -17°C° 0 mm 2 mps 749 mmHg 95%
    10:00 -16°C° 0 mm 2 mps 750 mmHg 94%
    11:00 -14°C° 0 mm 2 mps 750 mmHg 92%
    12:00 -13°C° 0 mm 2 mps 751 mmHg 91%
    13:00 -13°C° 0 mm 2 mps 751 mmHg 91%
    14:00 -13°C° 0 mm 2 mps 751 mmHg 91%
    15:00 -12°C° 0 mm 2 mps 751 mmHg 91%
    16:00 -14°C° 0 mm 2 mps 752 mmHg 92%
    17:00 -15°C° 0 mm 2 mps 752 mmHg 93%
    18:00 -14°C° 0 mm 1 mps 752 mmHg 95%
    19:00 -14°C° 0 mm 1 mps 753 mmHg 94%
    20:00 -14°C° 0 mm 1 mps 753 mmHg 94%
    21:00 -14°C° 0 mm 1 mps 753 mmHg 93%
    22:00 -14°C° 0 mm 1 mps 754 mmHg 93%
    23:00 -13°C° 0 mm 1 mps 754 mmHg 93%

    24 February, Sunday

    Time Temperature Precipitation Wind Pressure Humidity
    00:00 -13°C° 0 mm 1 mps 754 mmHg 93%
    01:00 -13°C° 0 mm 1 mps 754 mmHg 93%
    02:00 -12°C° 0 mm 1 mps 755 mmHg 94%
    03:00 -12°C° 0 mm 1 mps 755 mmHg 94%
    04:00 -14°C° 0 mm 2 mps 755 mmHg 94%
    05:00 -14°C° 0 mm 2 mps 755 mmHg 94%
    06:00 -14°C° 0 mm 2 mps 755 mmHg 95%
    07:00 -13°C° 0.1 mm 2 mps 755 mmHg 95%
    08:00 -13°C° 0.1 mm 2 mps 755 mmHg 95%
    09:00 -13°C° 0.1 mm 3 mps 756 mmHg 95%
    10:00 -13°C° 0.1 mm 3 mps 756 mmHg 95%
    11:00 -12°C° 0.1 mm 3 mps 756 mmHg 94%
    12:00 -10°C° 0.1 mm 3 mps 756 mmHg 94%
    13:00 -10°C° 0.1 mm 3 mps 756 mmHg 94%
    14:00 -9°C° 0.1 mm 3 mps 756 mmHg 93%
    15:00 -9°C° 0.1 mm 3 mps 756 mmHg 93%
    16:00 -10°C° 0.1 mm 3 mps 756 mmHg 94%
    17:00 -10°C° 0.1 mm 3 mps 756 mmHg 94%
    18:00 -12°C° 0.1 mm 3 mps 756 mmHg 95%
    19:00 -10°C° 0 mm 2 mps 757 mmHg 95%
    20:00 -12°C° 0 mm 2 mps 757 mmHg 95%
    21:00 -13°C° 0 mm 2 mps 757 mmHg 95%
    22:00 -13°C° 0 mm 2 mps 757 mmHg 95%
    23:00 -13°C° 0 mm 2 mps 757 mmHg 94%
    Show more